sat.trackr.live / text

‹ back to catalog

STARLINK-2363

NORAD 47903 · 2021-021AV

PAYLOAD ACTIVE UNKNOWN

§ Identity

Operator
Country
US
Launch date
2021-03-14
Launch site
AFETR
Launch vehicle
Mass (kg)
RCS (m²)

Purposes: comms

External: N2YO · Heavens-Above · Gunter

§ Orbital elements

Epoch: 2026-05-25T05:27:33.170400Z

Period
91.09 min
Inclination
53.1542°
Eccentricity
0.0006015
Mean motion
15.80926945 rev/d
Perigee alt
323.8 km
Apogee alt
331.9 km
Semi-major
6,706.0 km
B*
7.8009e-4
RAAN
233.4444°
Arg perigee
328.2716°
Mean anomaly
31.7943°
Rev number
28,885

§ Raw data

STARLINK-23631 47903U 21021AV  26145.22746725  .00156626  00000+0  78009-3 0  99942 47903  53.1542 233.4444 0006015 328.2716  31.7943 15.80926945288857

JSON: /api/v1/satellites/47903 · /tle

For live sub-satellite position, see the globe view (requires WebGL).

§ Visibility from observer

Set your observer location to see the next 7 days of passes ≥ 10°. The values pass through the URL so the page stays shareable.

No JS? Fill the form by hand. The geolocation button needs JavaScript.